Location: San Pelegr�n
(42.1868°N, 0.0079°E)
Time: 15:03:21
(UTC+00:00)

Cosmos 1812 Rocket - Pass Details

Date: 24 January 2020
Orbit: 606 x 632 km, 82.5° (Epoch: 25 February)

Event Time Altitude Azimuth Distance (km) Brightness Sun altitude
Rises 17:28:34 0° 352° (N) 2,931 6.9 -5.1°
Reaches altitude 10° 17:30:49 10° 353° (N) 2,021 6.1 -5.5°
Maximum altitude 17:35:18 84° 81° (E) 641 3.6 -6.3°
Drops below altitude 10° 17:39:46 10° 171° (S) 2,005 6.3 -7.1°
Sets 17:41:59 0° 172° (S) 2,907 7.2 -7.4°
